RH
59 43 52 44 40 38 53 44 40 35 30 29 26 32 37 36 39 53 36 47 51 57 57 54 51 53 55 55 57 58 57 57 58 59 60 58 56 57 57 57 58 60 61 61 62 63 64 65 66
52 30 35 38 38 45 56 42 36 31 25 24 24 26 31 39 29 31 36 47 50 52 56 55 48 48 51 52 53 55 54 55 56 59 58 57 58 56 56 56 56 58 59 60 61 61 61 61 62
39 26 27 35 46 50 54 40 33 25 23 26 26 25 29 34 29 31 37 46 49 53 52 48 48 46 46 48 49 51 52 52 55 58 57 57 59 56 56 56 55 57 58 59 60 60 61 61 60
24 25 25 39 59 45 40 36 26 26 24 24 26 32 28 29 28 33 38 40 49 55 54 53 49 48 46 46 46 47 49 51 53 56 57 55 57 57 57 56 57 57 57 58 59 60 61 61 61
27 25 31 43 54 42 39 30 28 28 28 27 27 36 36 32 32 37 41 40 48 53 50 49 48 47 49 45 45 45 48 48 50 52 55 55 55 56 57 57 58 57 56 56 57 58 60 61 61
22 24 35 49 42 34 34 28 25 26 28 28 31 33 36 33 36 41 43 47 49 51 53 54 46 48 53 46 45 45 46 46 47 49 52 53 53 54 56 57 58 57 57 55 54 56 59 59 60
20 24 34 43 39 33 29 26 25 26 28 31 26 34 36 35 37 40 43 50 53 55 58 63 62 57 56 54 46 46 46 46 45 47 49 51 53 54 55 56 56 57 56 56 56 59 60 59 59
20 23 35 45 36 37 26 22 18 19 26 23 26 36 40 34 37 41 47 52 55 59 64 66 66 61 59 60 47 48 47 44 45 51 50 55 56 56 55 54 57 59 61 63 61 61 60 58 58
19 26 33 32 33 32 22 20 21 22 25 26 28 29 27 28 37 43 47 52 56 59 68 69 66 64 60 58 51 59 54 50 53 60 58 67 69 68 59 57 57 60 62 64 62 60 60 58 60
24 33 33 28 30 29 22 19 20 25 26 28 27 26 25 27 35 39 41 47 52 63 70 71 71 67 61 51 60 66 61 62 63 72 71 72 71 64 56 60 59 60 59 62 60 61 63 62 60
24 30 29 26 24 22 25 21 20 25 28 26 28 27 26 26 30 34 34 43 44 50 60 68 70 67 64 66 65 73 73 68 71 73 72 71 70 77 77 77 76 71 62 62 62 66 64 64 67
22 21 25 24 20 20 22 18 20 23 25 23 25 26 25 23 25 27 33 38 45 52 56 67 66 58 61 66 68 72 68 63 74 76 73 76 82 83 81 72 75 67 68 72 73 73 69 69 65
21 21 18 18 17 18 16 21 23 25 22 22 22 22 24 24 26 28 30 38 52 52 60 66 60 57 56 62 69 67 66 66 72 74 74 81 84 85 79 76 72 72 69 75 79 75 74 72 70
20 17 17 15 16 17 18 20 20 23 22 22 23 25 25 24 27 32 32 45 49 52 62 64 60 54 55 65 67 66 67 69 66 69 77 79 83 84 83 82 76 71 72 75 79 78 77 78 76
17 18 17 18 18 18 16 22 25 21 21 24 23 22 23 24 28 26 30 44 46 51 57 59 53 55 58 62 65 66 66 62 64 63 77 80 82 84 87 79 72 71 77 78 80 81 79 80 74
19 22 24 18 15 16 16 24 22 22 21 25 24 24 23 25 27 28 35 42 50 54 52 51 44 57 56 64 66 62 66 67 64 68 81 80 74 80 78 79 70 77 80 81 83 84 83 82 79
28 30 26 22 16 15 17 26 21 22 21 23 24 25 24 28 30 29 37 46 49 54 53 53 55 57 59 64 65 68 65 66 67 75 78 80 69 76 81 80 74 79 82 85 85 76 80 79 78
30 27 31 23 19 17 20 22 20 22 21 22 23 24 25 27 29 29 38 47 51 53 52 54 56 57 62 68 66 69 68 69 70 77 75 73 71 76 86 76 77 81 83 84 82 78 73 72 74
25 24 27 26 19 18 18 19 20 21 23 23 24 24 26 28 28 31 34 48 53 52 48 52 55 59 63 69 71 73 73 71 70 74 71 70 72 80 71 77 78 82 86 79 73 74 80 76 77
26 27 29 24 18 20 23 21 22 20 19 19 21 25 26 31 31 31 37 52 53 53 49 54 56 60 63 69 74 74 71 70 70 78 77 75 73 84 68 78 81 83 81 87 90 85 93 84 86
24 28 28 24 21 24 28 30 28 19 19 18 19 22 26 26 29 32 42 58 59 55 50 55 60 63 66 68 70 72 74 73 75 80 75 76 77 84 73 76 82 87 84 92 85 90 96 97 90
29 26 26 26 31 36 26 49 35 22 19 17 16 23 27 25 29 32 52 63 60 60 53 57 58 64 66 69 73 75 79 79 79 85 84 81 82 84 72 77 82 79 85 90 92 88 96 94 97
33 29 31 34 37 47 41 57 45 21 22 19 17 20 27 32 29 41 53 58 60 57 58 63 63 66 70 72 73 77 78 82 82 85 82 85 86 80 72 77 84 76 89 87 86 92 94 97 98
27 34 47 53 52 76 50 58 69 26 21 18 16 20 27 32 35 46 50 53 60 57 58 64 66 70 70 71 71 72 77 77 85 87 87 88 88 79 74 77 86 84 86 88 87 87 93 96 97
41 57 85 81 84 74 48 52 56 39 24 17 18 24 32 33 42 49 56 58 56 54 58 61 66 70 70 72 70 74 77 80 86 89 90 92 85 80 80 82 88 84 85 84 83 90 92 96 98
45 57 83 75 94 83 48 65 59 30 29 17 16 30 34 38 38 53 58 57 56 55 59 64 65 69 72 71 72 74 77 82 86 85 87 93 92 86 83 83 85 80 82 85 84 94 90 93 93
40 56 53 74 77 81 71 52 38 34 40 33 34 35 38 43 51 59 61 62 63 62 66 70 69 70 71 71 73 75 78 78 81 85 85 91 86 70 80 84 80 79 80 82 87 93 96 93 90
49 54 62 78 70 81 75 65 75 47 52 45 46 43 46 52 58 63 62 64 66 67 70 71 70 73 73 73 73 73 76 77 78 80 84 85 84 84 85 83 82 76 78 82 86 88 91 87 91
77 88 89 84 94 89 97 86 80 60 56 62 63 47 50 59 64 63 64 65 66 68 69 72 72 75 75 74 74 75 77 76 78 77 83 82 83 84 82 74 81 79 81 82 89 82 83 86 88
57 76 86 86 79 97 94 82 72 78 56 52 56 48 54 59 65 62 63 64 65 65 67 70 75 76 74 73 73 73 73 74 76 77 76 83 84 85 82 77 78 81 82 82 88 81 80 88 93
Wind_Speed
1 5 3 4 5 6 3 5 1 4 4 3 7 12 11 7 4 5 5 9 8 7 6 6 10 12 14 15 15 16 17 18 19 21 22 21 21 21 22 21 21 22 22 21 21 21 21 21 21
2 4 4 2 5 4 3 2 5 4 9 11 8 4 7 5 4 6 6 5 9 7 5 3 10 10 12 15 14 16 16 18 20 21 22 22 22 22 23 22 22 22 22 21 21 21 20 21 21
5 2 4 5 4 4 5 3 9 9 8 3 6 6 5 4 4 4 6 8 8 7 3 6 10 10 10 14 14 15 16 18 19 21 22 23 23 23 23 23 22 22 22 22 22 21 22 22 22
4 5 5 7 2 3 9 8 9 9 5 8 7 8 5 2 4 8 8 11 9 4 1 6 12 12 11 14 14 15 15 17 18 20 22 24 24 23 24 24 24 24 23 23 22 23 23 23 23
4 4 5 5 2 1 1 8 6 5 5 3 3 4 5 4 13 11 9 9 8 5 4 5 12 12 13 14 15 15 16 16 17 18 20 23 23 22 23 23 23 23 22 22 21 22 23 23 23
4 4 5 4 3 3 2 7 6 4 4 7 8 7 5 8 11 8 9 8 8 7 4 5 11 14 15 15 16 15 15 17 18 17 18 20 22 22 22 22 24 23 23 21 21 20 23 24 25
5 5 5 7 8 5 6 7 7 7 8 3 13 6 5 5 9 9 9 7 7 6 5 4 5 9 13 15 16 15 15 18 17 16 16 17 20 21 23 23 23 23 23 23 21 22 25 26 26
6 6 5 4 8 4 5 3 7 6 4 6 6 7 7 7 9 8 7 6 6 5 5 4 4 6 7 6 15 16 14 18 16 12 16 15 16 19 22 23 23 25 24 24 23 24 26 25 25
3 6 3 6 9 5 6 7 6 6 9 4 3 6 11 14 8 7 4 2 4 4 4 3 5 5 5 4 7 11 11 15 15 8 13 9 4 6 12 20 23 21 22 22 24 24 25 23 21
7 5 3 3 7 8 5 8 8 6 10 7 10 7 7 13 11 9 7 6 5 5 3 3 6 5 5 3 6 6 5 5 5 5 4 4 6 8 11 15 20 22 22 23 23 22 21 17 8
4 3 1 8 9 7 5 5 5 14 4 5 13 9 6 5 7 7 6 7 6 6 3 4 5 4 6 4 4 3 3 3 4 6 4 5 5 5 4 4 4 6 16 7 11 11 8 11 8
7 6 5 3 6 7 7 5 6 3 6 11 9 8 6 7 7 7 8 8 7 6 6 5 4 5 5 3 4 3 3 3 4 3 5 5 3 4 4 3 5 7 6 9 8 7 10 11 11
8 3 7 7 10 7 13 7 6 9 11 9 10 8 8 7 6 7 8 7 8 7 6 5 4 5 5 6 4 4 5 4 3 4 5 4 4 3 4 4 6 6 8 8 8 9 9 10 10
5 7 4 7 7 5 15 6 6 3 9 9 9 9 7 8 7 6 7 7 7 7 6 4 4 6 7 6 5 4 4 5 5 4 4 5 3 4 4 5 6 7 8 8 7 9 9 10 10
6 7 6 2 4 5 10 3 8 10 8 10 10 8 7 7 9 8 8 9 8 6 7 5 6 7 7 5 5 4 5 5 5 4 5 5 5 5 5 6 7 7 7 9 8 8 8 9 9
5 5 3 6 6 6 4 4 6 9 13 10 10 8 7 8 11 7 11 10 8 8 8 6 6 7 6 6 5 5 5 5 4 4 4 6 7 6 7 6 7 7 7 7 8 8 9 9 10
2 4 5 3 7 6 5 3 8 7 11 10 9 9 9 8 6 7 11 10 9 9 8 7 7 6 6 6 5 6 7 5 4 4 4 5 9 8 7 6 7 8 7 7 8 11 11 11 11
8 5 5 9 9 6 6 6 10 10 11 12 10 9 8 10 8 11 11 8 8 8 8 8 6 5 6 5 5 5 5 4 3 4 4 8 7 7 6 8 8 8 8 9 11 13 12 11 10
6 5 7 5 7 6 10 6 14 12 7 10 9 8 9 8 8 7 10 9 9 8 8 7 7 4 4 4 4 3 3 3 3 4 6 7 7 7 10 8 9 9 9 13 14 11 12 10 10
4 4 2 2 8 5 6 11 9 12 19 15 11 9 9 7 8 7 8 6 6 7 7 7 7 7 5 4 2 0 2 2 2 2 5 6 8 7 11 9 9 10 10 11 12 13 9 8 9
7 6 5 6 6 2 1 6 5 10 6 7 7 7 8 17 14 10 8 8 8 7 7 8 7 7 6 7 3 3 3 2 4 4 6 6 7 6 11 10 9 10 10 9 12 12 11 9 9
5 4 10 12 8 5 6 6 5 7 16 12 12 8 12 12 9 9 11 6 8 6 7 8 8 8 7 6 5 4 2 3 3 2 3 5 6 7 10 9 10 12 9 11 10 11 10 10 10
2 7 5 4 4 4 1 4 7 9 9 14 15 10 10 12 16 12 12 9 6 6 8 7 9 7 7 7 5 4 5 3 3 3 6 6 6 8 10 10 10 12 8 10 13 13 11 8 7
7 8 9 6 3 3 6 8 7 6 13 16 13 8 11 11 13 14 9 10 7 7 8 8 9 7 8 7 6 6 7 5 5 4 5 5 5 7 10 10 9 10 9 11 11 12 12 10 9
7 7 4 6 5 7 3 3 10 6 7 20 20 12 14 16 16 14 13 10 7 9 8 8 8 8 8 7 6 6 6 7 6 4 4 5 6 7 9 10 9 9 10 11 12 11 12 11 10
5 6 7 8 4 4 4 5 6 4 7 15 13 14 16 16 13 15 12 10 8 9 8 8 8 9 7 6 5 5 6 4 4 3 3 3 4 5 8 9 9 10 11 11 12 8 9 11 11
4 3 4 5 4 5 3 3 4 4 10 12 17 19 16 11 12 14 11 9 8 8 8 9 9 7 6 5 5 6 6 6 5 4 3 2 4 6 9 8 10 11 12 13 13 9 10 11 12
3 1 1 4 2 3 5 4 5 2 6 9 14 17 12 11 14 12 10 9 6 8 8 9 8 8 6 5 4 5 6 6 5 5 2 3 5 6 8 8 9 11 12 13 12 11 11 12 10
4 2 6 5 3 4 1 7 4 4 6 10 9 15 16 14 13 12 9 7 8 7 9 8 8 8 6 4 5 6 6 6 6 5 4 3 5 6 9 9 9 11 12 13 12 13 14 14 14
3 5 7 6 5 1 5 9 3 4 6 9 9 11 10 13 13 12 11 10 8 9 8 7 7 7 5 4 5 5 6 6 6 6 6 6 6 6 8 9 9 10 12 12 12 14 15 15 14
Wind_Direction
358 169 144 55 52 69 40 318 279 125 66 340 80 84 96 42 22 137 98 121 130 97 79 56 42 34 30 29 26 23 23 21 20 20 16 16 18 17 17 13 12 8 6 5 5 2 1 0 357
309 124 47 88 85 68 279 279 97 113 145 147 90 92 61 64 62 108 103 152 117 110 95 83 42 40 30 27 28 26 25 23 23 21 17 18 17 15 15 12 11 6 5 4 3 2 360 358 355
153 71 83 90 90 139 170 237 120 138 154 104 111 54 74 99 97 74 121 136 106 97 116 46 35 32 37 27 29 27 26 24 25 23 21 20 16 16 11 11 5 4 4 3 2 0 2 355 354
116 20 30 73 65 315 150 187 142 142 112 61 112 71 64 350 114 130 131 116 94 124 32 6 33 23 28 24 28 27 30 24 23 24 23 21 16 13 12 7 3 1 1 360 1 3 357 356 353
32 66 64 75 29 156 116 161 150 121 113 114 136 108 79 44 110 125 114 107 113 128 83 43 37 32 20 26 27 24 30 23 21 22 22 21 17 13 14 5 2 357 356 355 357 357 356 354 353
48 101 78 157 180 153 44 146 119 96 124 140 93 108 136 150 115 144 137 142 147 142 116 59 44 34 28 23 28 19 27 20 17 20 20 18 17 15 11 5 359 357 352 350 351 354 354 351 348
110 79 167 141 172 151 175 192 134 143 146 128 140 97 136 158 157 156 152 149 148 136 108 85 46 40 26 17 25 20 25 16 13 17 17 19 16 17 11 7 358 359 356 350 358 357 347 343 341
108 97 99 171 183 196 155 94 104 69 45 103 139 147 179 200 171 149 138 148 135 136 123 118 77 52 29 23 13 23 27 18 16 12 24 31 21 18 14 7 2 360 1 1 353 346 339 338 339
76 62 142 199 162 173 170 123 34 35 86 42 342 109 149 162 134 118 108 125 117 130 143 122 82 53 34 44 8 21 12 6 18 28 35 26 359 5 15 6 3 2 353 350 341 339 337 338 334
67 83 313 288 157 145 137 112 134 90 92 73 89 102 127 126 159 158 164 167 141 156 177 121 78 48 38 31 6 15 352 337 11 51 29 10 18 16 16 8 2 351 347 343 340 340 340 334 321
33 107 305 3 94 85 94 90 95 127 61 154 143 149 135 141 162 163 156 163 155 156 140 101 88 56 48 21 1 9 340 332 27 58 20 19 23 9 358 337 342 342 343 337 335 330 329 321 319
86 17 98 86 95 89 128 94 62 30 140 147 144 142 147 135 116 130 127 143 134 136 107 102 86 57 43 24 0 351 346 357 41 49 29 34 24 7 339 347 346 350 335 325 325 325 323 321 318
86 112 46 100 82 64 80 76 117 104 129 135 138 125 149 142 158 106 131 116 139 108 112 115 83 56 38 23 358 2 353 9 40 32 32 47 28 0 348 349 354 340 335 329 325 325 321 317 310
104 88 101 81 98 113 115 148 89 203 134 133 131 154 164 166 123 117 112 131 110 111 124 127 82 54 49 30 21 9 0 12 33 16 45 45 25 9 3 353 350 341 336 326 319 319 319 312 307
120 80 43 16 113 124 119 82 149 166 140 144 153 173 157 150 140 148 121 131 131 136 149 138 82 56 54 41 32 17 17 27 21 19 48 35 30 8 4 359 344 338 327 323 319 314 315 311 308
84 67 131 257 139 182 106 243 185 181 146 164 177 188 181 158 157 155 130 130 146 128 114 85 75 70 51 60 34 25 23 16 6 33 39 35 25 19 5 352 343 332 328 323 322 318 323 315 315
241 189 194 220 201 141 150 230 197 192 158 178 196 198 193 162 153 136 142 146 148 135 123 103 91 79 63 61 41 34 21 10 2 53 41 25 22 8 3 335 333 333 328 323 326 330 327 322 318
189 208 202 195 206 167 177 212 177 193 171 189 204 203 196 167 175 157 145 140 131 125 118 113 105 83 75 66 41 30 14 346 19 57 37 31 13 358 347 340 333 333 331 332 334 333 326 324 313
169 188 192 226 187 131 202 212 190 193 188 204 209 209 194 180 177 161 142 135 123 108 115 120 111 72 74 55 42 16 332 326 31 59 34 26 9 359 349 345 339 337 339 338 338 330 319 328 330
263 141 166 71 159 143 192 243 193 183 208 199 203 199 183 160 159 163 130 132 111 129 118 120 104 84 70 68 51 25 303 310 36 66 25 20 10 2 349 342 337 340 339 330 332 328 328 321 333
232 170 197 162 145 290 125 279 165 213 198 203 225 194 167 173 166 162 135 137 128 128 125 125 105 89 74 77 55 349 326 349 19 22 18 4 356 343 351 343 339 341 337 338 334 329 331 330 336
229 309 143 131 121 211 144 274 289 197 197 199 219 185 177 165 153 141 136 138 139 143 106 112 103 90 83 75 63 47 29 24 8 37 354 347 338 338 348 343 343 349 343 338 334 332 337 338 337
180 98 114 118 131 91 231 61 267 132 199 211 214 203 177 162 156 139 150 144 142 126 114 102 91 88 81 74 72 55 38 28 29 22 13 342 334 336 341 346 342 351 342 338 342 335 343 336 331
140 65 34 41 61 20 228 139 280 180 215 202 208 196 158 140 134 138 132 129 123 107 103 97 96 87 82 74 55 55 54 36 44 22 11 349 329 337 342 344 339 349 343 342 341 341 335 339 333
75 62 7 355 4 224 155 131 245 246 232 190 192 159 148 141 141 137 139 137 122 110 109 105 100 85 78 75 51 48 49 53 65 47 12 353 345 348 340 336 340 347 341 342 344 341 342 340 335
189 146 155 198 206 259 106 231 259 305 302 192 161 129 135 143 141 145 139 130 123 109 107 105 99 86 86 73 50 45 45 50 56 58 31 360 329 321 327 335 340 350 345 345 347 344 345 339 338
232 202 190 114 345 53 247 267 332 359 35 105 128 132 143 143 136 134 129 130 121 113 115 116 98 94 89 79 59 45 42 44 38 44 24 344 323 343 342 338 348 353 351 353 352 349 349 347 345
58 44 113 352 98 294 297 275 229 154 102 119 133 135 134 131 129 131 132 130 124 117 118 96 100 104 98 80 61 54 42 37 27 36 18 1 330 343 341 347 342 355 354 352 354 355 357 355 351
349 351 53 114 121 162 289 267 223 220 177 148 139 140 144 139 138 136 139 138 125 120 103 108 103 106 94 84 70 57 40 31 28 13 15 344 340 349 357 354 341 353 353 353 354 3 7 358 355
306 250 144 137 243 80 136 274 281 278 200 139 146 147 143 138 141 145 147 132 126 113 109 109 107 108 114 103 78 60 46 32 29 11 12 23 359 2 2 354 349 353 351 356 3 8 9 359 356